Location: Unspecified
(0.0000°N, 0.0000°E)
Time: 03:28:24
(UTC+00:00)

A-11 Canister half - All Passes

Search period start: 20 June 2018 00:00
Search period end: 30 June 2018 00:00
Orbit: 1517 x 1683 km, 47.2° (Epoch: 19 June)

Date Brightness Start Highest point End Pass type
(mag) Time Alt. Az. Time Alt. Az. Time Alt. Az.
20 Jun - 00:31:15 10° WNW 00:39:36 38° SW 00:48:09 10° SSE night (unlit)
20 Jun - 09:14:13 10° S 09:20:56 19° SE 09:27:36 10° E daylight
20 Jun - 11:15:56 10° SW 11:26:10 88° NW 11:36:12 10° NE daylight
20 Jun - 13:25:08 10° W 13:31:19 18° NW 13:37:27 10° N daylight
20 Jun - 22:03:34 10° NNW 22:12:02 40° NE 22:20:31 10° ESE visible
21 Jun - 00:08:10 10° WNW 00:16:41 42° SW 00:25:24 10° SSE night (unlit)
21 Jun - 08:51:45 10° S 08:57:56 18° SE 09:04:04 10° E daylight
21 Jun - 10:53:00 10° SW 11:03:14 86° SE 11:13:18 10° NE daylight
21 Jun - 13:01:36 10° W 13:08:20 20° NW 13:15:01 10° N daylight
21 Jun - 21:40:52 10° NNW 21:49:08 36° NE 21:57:26 10° ESE visible
21 Jun - 23:45:07 10° WNW 23:53:47 46° SW 00:02:39 10° SSE visible
22 Jun - 08:29:23 10° SSE 08:34:55 16° SE 08:40:26 10° E daylight
22 Jun - 10:30:06 10° SW 10:40:18 80° SE 10:50:22 10° NE daylight
22 Jun - 12:38:08 10° W 12:45:21 22° NW 12:52:30 10° N daylight
22 Jun - 21:18:10 10° NNW 21:26:14 33° NE 21:34:16 10° ESE visible
22 Jun - 23:22:05 10° WNW 23:30:54 50° SW 23:39:52 10° SSE visible
23 Jun - 08:07:07 10° SSE 08:11:54 14° SE 08:16:39 10° ESE daylight
23 Jun - 10:07:11 10° SSW 10:17:21 74° SE 10:27:25 10° NE daylight
23 Jun - 12:14:43 10° W 12:22:22 24° NW 12:29:57 10° N daylight
23 Jun - 20:55:31 10° N 21:03:19 30° NE 21:11:06 10° ESE visible
23 Jun - 22:59:04 10° NW 23:08:00 55° SW 23:17:05 10° SSE visible
24 Jun - 07:45:03 10° SSE 07:48:52 12° SE 07:52:40 10° ESE daylight
24 Jun - 09:44:19 10° SSW 09:54:25 69° SE 10:04:26 10° NE daylight
24 Jun - 11:51:23 10° WSW 11:59:24 27° NW 12:07:21 10° N daylight
24 Jun - 20:32:53 10° N 20:40:25 28° NE 20:47:54 10° ESE visible
24 Jun - 22:36:05 10° NW 22:45:07 60° SW 22:54:16 10° SSE visible
25 Jun - 07:23:25 10° SSE 07:25:49 11° SE 07:28:14 10° ESE daylight
25 Jun - 09:21:28 10° SSW 09:31:29 63° SE 09:41:26 10° NE daylight
25 Jun - 11:28:05 10° WSW 11:36:26 29° NW 11:44:43 10° N daylight
25 Jun - 20:10:16 10° N 20:17:29 25° NE 20:24:38 10° E visible
25 Jun - 22:13:06 10° NW 22:22:14 65° SW 22:31:27 10° SSE visible
26 Jun - 00:26:32 10° SW 00:27:39 10° SW 00:28:47 10° SW night (unlit)
26 Jun - 08:58:37 10° SSW 09:08:33 58° SE 09:18:25 10° NE daylight
26 Jun - 11:04:50 10° WSW 11:13:28 32° NW 11:22:03 10° N daylight
26 Jun - 19:47:41 10° N 19:54:33 23° NE 20:01:21 10° E visible
26 Jun - 21:50:09 10° NW 21:59:21 71° SW 22:08:37 10° SSE visible
27 Jun - 00:01:42 10° WSW 00:04:39 12° SW 00:07:37 10° SSW night (unlit)
27 Jun - 08:35:49 10° SSW 08:45:36 54° SE 08:55:22 10° NE daylight
27 Jun - 10:41:37 10° WSW 10:50:30 35° NW 10:59:21 10° NNE daylight
27 Jun - 19:25:09 10° N 19:31:36 21° NE 19:38:01 10° E visible
27 Jun - 21:27:13 10° NW 21:36:28 77° SW 21:45:46 10° SE visible
27 Jun - 23:37:41 10° WSW 23:41:39 13° SW 23:45:41 10° SSW night (unlit)
28 Jun - 08:13:00 10° SSW 08:22:39 49° SE 08:32:18 10° ENE daylight
28 Jun - 10:18:26 10° WSW 10:27:33 38° NW 10:36:39 10° NNE daylight
28 Jun - 19:02:40 10° N 19:08:40 19° NE 19:14:36 10° E visible
28 Jun - 21:04:18 10° NW 21:13:35 83° SW 21:22:54 10° SE visible
28 Jun - 23:13:56 10° WSW 23:18:41 15° SW 23:23:28 10° SSW visible
29 Jun - 07:50:14 10° SSW 07:59:43 45° SE 08:09:12 10° ENE daylight
29 Jun - 09:55:17 10° WSW 10:04:36 41° NW 10:13:54 10° NNE daylight
29 Jun - 18:40:13 10° N 18:45:42 17° NE 18:51:08 10° E visible
29 Jun - 20:41:23 10° NW 20:50:43 90° SW 21:00:01 10° SE visible
29 Jun - 22:50:20 10° W 22:55:42 17° SW 23:01:09 10° S visible
